Hourly Weather Ruchim

Today, 10 April, Saturday

Time Temperature Precipitation Wind Pressure Humidity
00:00 -1°C° 0 mm 3 mps 744 mmHg 95%
01:00 -1°C° 0.1 mm 3 mps 744 mmHg 94%
02:00 -2°C° 0.1 mm 4 mps 745 mmHg 93%
03:00 -2°C° 0 mm 4 mps 745 mmHg 94%
04:00 -2°C° 0.3 mm 4 mps 745 mmHg 94%
05:00 -1°C° 0.3 mm 5 mps 744 mmHg 95%
06:00 -1°C° 0.3 mm 5 mps 744 mmHg 95%
07:00 -1°C° 0.3 mm 5 mps 744 mmHg 96%
08:00 -1°C° 0.3 mm 5 mps 744 mmHg 96%
09:00 -1°C° 0 mm 5 mps 744 mmHg 97%
10:00 -1°C° 1 mm 5 mps 744 mmHg 97%
11:00 0°C° 1 mm 4 mps 743 mmHg 97%
12:00 0°C° 1 mm 4 mps 743 mmHg 97%
13:00 0°C° 0.7 mm 4 mps 743 mmHg 97%
14:00 0°C° 0.7 mm 4 mps 743 mmHg 96%
15:00 +1°C° 0 mm 4 mps 743 mmHg 96%
16:00 0°C° 0.1 mm 4 mps 743 mmHg 97%
17:00 0°C° 0.1 mm 4 mps 743 mmHg 97%
18:00 +1°C° 0.1 mm 3 mps 743 mmHg 98%
19:00 +1°C° 0.2 mm 3 mps 743 mmHg 98%
20:00 0°C° 0.2 mm 4 mps 742 mmHg 98%
21:00 0°C° 0.2 mm 4 mps 742 mmHg 98%
22:00 +1°C° 0 mm 3 mps 742 mmHg 98%
23:00 +1°C° 0 mm 3 mps 742 mmHg 98%

Tomorrow, 11 April, Sunday

Time Temperature Precipitation Wind Pressure Humidity
00:00 +1°C° 0 mm 3 mps 742 mmHg 99%
01:00 +1°C° 0 mm 3 mps 743 mmHg 98%
02:00 +1°C° 0 mm 3 mps 743 mmHg 98%
03:00 +1°C° 0 mm 3 mps 743 mmHg 98%
04:00 +1°C° 0 mm 3 mps 743 mmHg 98%
05:00 +1°C° 0 mm 3 mps 744 mmHg 98%
06:00 +1°C° 0 mm 3 mps 744 mmHg 98%
07:00 +2°C° 0 mm 3 mps 744 mmHg 98%
08:00 +1°C° 0 mm 4 mps 745 mmHg 97%
09:00 +3°C° 0 mm 4 mps 745 mmHg 97%
10:00 +3°C° 0 mm 4 mps 746 mmHg 96%
11:00 +4°C° 0 mm 4 mps 746 mmHg 96%
12:00 +4°C° 0 mm 4 mps 746 mmHg 95%
13:00 +4°C° 0 mm 4 mps 746 mmHg 95%
14:00 +5°C° 0 mm 4 mps 746 mmHg 95%
15:00 +5°C° 0 mm 5 mps 747 mmHg 96%
16:00 +5°C° 0 mm 4 mps 747 mmHg 96%
17:00 +4°C° 0 mm 4 mps 747 mmHg 96%
18:00 +4°C° 0 mm 4 mps 747 mmHg 97%
19:00 +4°C° 0 mm 4 mps 747 mmHg 97%
20:00 +4°C° 0 mm 4 mps 748 mmHg 96%
21:00 +4°C° 0 mm 4 mps 748 mmHg 96%
22:00 +4°C° 0 mm 4 mps 748 mmHg 96%
23:00 +4°C° 0 mm 4 mps 748 mmHg 96%

Day after tomorrow, 12 April, Monday

Time Temperature Precipitation Wind Pressure Humidity
00:00 +4°C° 0 mm 4 mps 748 mmHg 95%
01:00 +4°C° 0 mm 4 mps 748 mmHg 95%
02:00 +4°C° 0 mm 4 mps 748 mmHg 95%
03:00 +4°C° 0 mm 4 mps 748 mmHg 95%
04:00 +4°C° 0 mm 3 mps 748 mmHg 96%
05:00 +4°C° 0 mm 3 mps 748 mmHg 96%
06:00 +4°C° 0 mm 3 mps 748 mmHg 96%
07:00 +6°C° 0 mm 4 mps 749 mmHg 91%
08:00 +8°C° 0 mm 4 mps 749 mmHg 87%
09:00 +10°C° 0 mm 4 mps 749 mmHg 82%
10:00 +12°C° 0 mm 4 mps 749 mmHg 74%
11:00 +14°C° 0 mm 4 mps 749 mmHg 67%
12:00 +16°C° 0 mm 5 mps 749 mmHg 59%
13:00 +16°C° 0 mm 5 mps 749 mmHg 57%
14:00 +18°C° 0 mm 4 mps 749 mmHg 54%
15:00 +19°C° 0 mm 4 mps 749 mmHg 52%
16:00 +17°C° 0 mm 4 mps 748 mmHg 58%
17:00 +16°C° 0 mm 3 mps 748 mmHg 64%
18:00 +15°C° 0 mm 2 mps 748 mmHg 70%
19:00 +13°C° 0 mm 3 mps 748 mmHg 73%
20:00 +11°C° 0 mm 3 mps 749 mmHg 77%
21:00 +10°C° 0 mm 3 mps 749 mmHg 81%
22:00 +10°C° 0 mm 3 mps 749 mmHg 81%
23:00 +9°C° 0 mm 2 mps 749 mmHg 82%

13 April, Tuesday

Time Temperature Precipitation Wind Pressure Humidity
00:00 +9°C° 0 mm 2 mps 749 mmHg 83%
01:00 +8°C° 0 mm 2 mps 749 mmHg 84%
02:00 +8°C° 0 mm 2 mps 749 mmHg 84%
03:00 +8°C° 0 mm 2 mps 749 mmHg 85%
04:00 +7°C° 0 mm 2 mps 749 mmHg 85%
05:00 +7°C° 0 mm 2 mps 749 mmHg 84%
06:00 +7°C° 0 mm 2 mps 749 mmHg 84%
07:00 +9°C° 0 mm 3 mps 749 mmHg 73%
08:00 +11°C° 0 mm 3 mps 749 mmHg 63%
09:00 +13°C° 0 mm 4 mps 749 mmHg 53%
10:00 +14°C° 0 mm 4 mps 748 mmHg 47%
11:00 +15°C° 0 mm 4 mps 748 mmHg 42%
12:00 +17°C° 0 mm 4 mps 748 mmHg 36%
13:00 +18°C° 0 mm 4 mps 748 mmHg 35%
14:00 +18°C° 0 mm 4 mps 747 mmHg 34%
15:00 +18°C° 0 mm 4 mps 747 mmHg 33%
16:00 +17°C° 0 mm 4 mps 747 mmHg 39%
17:00 +16°C° 0 mm 3 mps 747 mmHg 46%
18:00 +14°C° 0 mm 2 mps 746 mmHg 53%
19:00 +13°C° 0 mm 2 mps 746 mmHg 56%
20:00 +12°C° 0 mm 2 mps 746 mmHg 60%
21:00 +10°C° 0 mm 2 mps 747 mmHg 64%
22:00 +9°C° 0 mm 2 mps 746 mmHg 65%
23:00 +9°C° 0 mm 2 mps 746 mmHg 66%

14 April, Wednesday

Time Temperature Precipitation Wind Pressure Humidity
00:00 +8°C° 0 mm 2 mps 746 mmHg 67%
01:00 +8°C° 0 mm 2 mps 746 mmHg 69%
02:00 +7°C° 0 mm 2 mps 746 mmHg 71%
03:00 +7°C° 0 mm 2 mps 746 mmHg 73%
04:00 +7°C° 0 mm 2 mps 746 mmHg 74%
05:00 +7°C° 0 mm 2 mps 746 mmHg 75%
06:00 +7°C° 0 mm 2 mps 745 mmHg 75%
07:00 +9°C° 0 mm 2 mps 745 mmHg 68%
08:00 +11°C° 0 mm 3 mps 745 mmHg 60%
09:00 +14°C° 0 mm 3 mps 745 mmHg 52%
10:00 +16°C° 0 mm 3 mps 745 mmHg 47%
11:00 +17°C° 0 mm 3 mps 745 mmHg 42%
12:00 +18°C° 0 mm 3 mps 745 mmHg 37%
13:00 +18°C° 0 mm 3 mps 744 mmHg 36%
14:00 +18°C° 0 mm 3 mps 744 mmHg 35%
15:00 +19°C° 0 mm 3 mps 744 mmHg 34%
16:00 +18°C° 0 mm 3 mps 743 mmHg 40%
17:00 +16°C° 0 mm 2 mps 743 mmHg 46%
18:00 +15°C° 0 mm 2 mps 743 mmHg 52%
19:00 +14°C° 0 mm 2 mps 743 mmHg 55%
20:00 +13°C° 0 mm 2 mps 743 mmHg 58%
21:00 +10°C° 0 mm 2 mps 743 mmHg 61%
22:00 +10°C° 0 mm 2 mps 742 mmHg 62%
23:00 +9°C° 0 mm 2 mps 742 mmHg 63%

15 April, Thursday

Time Temperature Precipitation Wind Pressure Humidity
00:00 +9°C° 0 mm 2 mps 742 mmHg 65%
01:00 +8°C° 0 mm 2 mps 742 mmHg 66%
02:00 +8°C° 0 mm 2 mps 742 mmHg 67%
03:00 +7°C° 0 mm 2 mps 741 mmHg 68%
04:00 +7°C° 0 mm 2 mps 741 mmHg 69%
05:00 +7°C° 0 mm 2 mps 741 mmHg 69%
06:00 +7°C° 0 mm 2 mps 741 mmHg 70%
07:00 +9°C° 0 mm 2 mps 741 mmHg 63%
08:00 +12°C° 0 mm 2 mps 741 mmHg 56%
09:00 +14°C° 0 mm 2 mps 740 mmHg 50%
10:00 +16°C° 0 mm 2 mps 740 mmHg 46%
11:00 +17°C° 0 mm 2 mps 740 mmHg 42%
12:00 +18°C° 0 mm 3 mps 740 mmHg 38%
13:00 +19°C° 0 mm 2 mps 739 mmHg 37%
14:00 +19°C° 0 mm 2 mps 739 mmHg 37%
15:00 +19°C° 0 mm 2 mps 738 mmHg 36%
16:00 +18°C° 0 mm 2 mps 738 mmHg 41%
17:00 +17°C° 0 mm 2 mps 737 mmHg 46%
18:00 +16°C° 0 mm 2 mps 737 mmHg 51%
19:00 +14°C° 0 mm 2 mps 737 mmHg 53%
20:00 +13°C° 0 mm 2 mps 736 mmHg 55%
21:00 +12°C° 0 mm 2 mps 736 mmHg 57%
22:00 +10°C° 0 mm 2 mps 735 mmHg 59%
23:00 +10°C° 0 mm 2 mps 735 mmHg 60%
Show more